Effective Sunday, March 17, 2024, the National Weather Service National Data Buoy Center will discontinue its Dial-A-Buoy Interactive Voice Response system. For more information, see Service Change Notice 24-06 (PDF).

Station SBIO1 - South Bass Island, OH Image indicating link to RSS feed of recent meteorological observations for station SBIO1


Conditions at SBIO1 as of
(5:00 pm EST)
2200 GMT on 02/29/2024:
     

Click on the graph icon in the table below to see a time series plot of the last five days of that observation.

5-day plot - Wind Direction Wind Direction (WDIR):SSE ( 150 deg true )
5-day plot - Wind Speed Wind Speed (WSPD): 2 kts
5-day plot - Wind Gust Wind Gust (GST): 3 kts
5-day plot - Atmospheric Pressure Atmospheric Pressure (PRES):30.45 in
5-day plot - Air Temperature Air Temperature (ATMP): 32.7 °F
5-day plot - Wind Speed at 10 Meters Wind Speed at 10 meters (WSPD10M): 2 kts
5-day plot - Wind Speed at 20 Meters Wind Speed at 20 meters (WSPD20M): 2 kts
5-day plot -  Wind Speed, Wind Gust and Atmospheric Pressure Combined plot of Wind Speed, Gust, and Air Pressure
Continuous Winds
TIME
(EST)
5-day plot - Wind Direction WDIR 5-day plot - Wind Speed WSPD
5:00 pmSSE ( 157 deg ) 3 kts
4:50 pmS ( 176 deg ) 2 kts
4:40 pmSSW ( 198 deg ) 1 kts
4:30 pmS ( 174 deg ) 1 kts
4:20 pmWSW ( 253 deg ) 0 kts
4:10 pmWNW ( 296 deg ) 1 kts
 
Peak gust during the measurement hour
TIME
(EST)
5-day plot - Gust Direction GDR 5-day plot - Gust Speed GST
4:50 pmS ( 170 deg ) 3 kts
Previous observations
TIME
(EST)
5-day plot - Wind Direction
WDIR
 
5-day plot - Wind Speed
WSPD
kts
5-day plot - Wind Gust
GST
kts
5-day plot - Wave Height
WVHT
ft
5-day plot - Dominant Wave Period
DPD
sec
5-day plot - Average Wave Period
APD
sec
5-day plot - Mean Wave Direction
MWD
 
5-day plot - Atmospheric Pressure
PRES
in
5-day plot - Pressure Tendency
PTDY
in
5-day plot - Air Temperature
ATMP
°F
5-day plot - Water Temperature
WTMP
°F
5-day plot - Dew Point
DEWP
°F
5-day plot - Salinity
SAL
psu
5-day plot - Visibility
VIS
nmi
5-day plot - Tide (above MLLW)
TIDE
ft
2024-02-29 04:00 pmNNW 2 3----30.45-0.04 31.8-----
2024-02-29 03:00 pmNNW 4 4----30.46-0.04 28.6-----
2024-02-29 01:00 pmWNW 3 4----30.49+0.01 27.5-----
2024-02-29 12:00 pmWNW 6 8----30.50+0.04 26.2-----
2024-02-29 11:00 am W 10 11----30.50+0.07 25.5-----
2024-02-29 10:00 am NW 16 18----30.48+0.08 25.3-----
2024-02-29 09:00 amWNW 14 16----30.47+0.10 25.2-----
2024-02-29 08:00 am NW 18 22----30.43+0.09 25.9-----
2024-02-29 07:00 amWNW 20 22----30.40+0.08 26.2-----
2024-02-29 06:00 amWNW 18 21----30.36+0.06 27.1-----
2024-02-29 05:00 am W 20 22----30.34+0.04 27.0-----
2024-02-29 04:00 amWSW 18 22----30.32+0.04 26.6-----
2024-02-29 03:00 amWSW 21 24----30.30+0.04 26.4-----
2024-02-29 02:00 amWSW 16 18----30.30+0.05 25.5-----
2024-02-29 01:00 amWSW 15 18----30.28+0.04 25.7-----
2024-02-29 12:00 am W 20 24----30.26+0.05 26.2-----
2024-02-28 11:00 pm W 22 25----30.25+0.08 26.1-----
2024-02-28 10:00 pm W 27 32----30.24+0.12 26.1-----
2024-02-28 09:00 pm W 31 33----30.21+0.17 26.6-----
2024-02-28 08:00 pm W 29 32----30.17+0.21 27.1-----
2024-02-28 07:00 pm W 26 28----30.12+0.23 27.1-----
2024-02-28 06:00 pmWNW 37 40----30.04+0.25 27.0-----
2024-02-28 05:00 pmWNW 38 43----29.96+0.25 27.5-----